TimeEST,TemperatureF,Dew PointF,Humidity,Sea Level PressureIn,VisibilityMPH,Wind Direction,Wind SpeedMPH,Gust SpeedMPH,PrecipitationIn,Events,Conditions,WindDirDegrees,DateUTC
12:53 AM,30.9,26.1,82,29.90,10.0,Variable,6.9,-,N/A,,Overcast,0,2009-01-18 05:53:00
1:53 AM,30.9,27.0,85,29.87,7.0,South,8.1,-,N/A,,Overcast,170,2009-01-18 06:53:00
2:53 AM,30.9,28.0,89,29.85,8.0,South,8.1,-,0.01,,Overcast,190,2009-01-18 07:53:00
3:53 AM,32.0,28.0,85,29.83,9.0,SSW,8.1,-,N/A,,Overcast,200,2009-01-18 08:53:00
4:41 AM,32.0,28.4,87,29.78,6.0,Variable,6.9,-,N/A,,Overcast,0,2009-01-18 09:41:00
4:53 AM,32.0,28.9,88,29.82,7.0,SSW,8.1,-,N/A,,Overcast,210,2009-01-18 09:53:00
5:53 AM,33.1,28.9,85,29.80,10.0,SSW,6.9,-,N/A,,Overcast,210,2009-01-18 10:53:00
6:53 AM,33.1,28.9,85,29.79,7.0,SSW,6.9,-,N/A,,Overcast,210,2009-01-18 11:53:00
7:53 AM,33.1,30.0,89,29.78,8.0,SSW,6.9,-,N/A,,Overcast,210,2009-01-18 12:53:00
8:03 AM,33.8,30.2,87,29.75,4.0,SW,4.6,-,0.00,,Overcast,220,2009-01-18 13:03:00
8:10 AM,33.8,30.2,87,29.75,1.8,SSW,6.9,-,0.00,Snow,Light Snow,200,2009-01-18 13:10:00
8:22 AM,33.8,30.2,87,29.75,0.8,SSW,6.9,-,0.00,Snow,Light Snow,210,2009-01-18 13:22:00
8:30 AM,33.8,30.2,87,29.75,0.8,SSW,4.6,-,0.01,Snow,Light Snow,200,2009-01-18 13:30:00
8:39 AM,32.0,30.2,93,29.75,1.2,SSW,4.6,-,0.01,Snow,Light Snow,200,2009-01-18 13:39:00
8:53 AM,33.1,30.9,92,29.79,1.0,South,4.6,-,0.01,Snow,Light Snow,190,2009-01-18 13:53:00
9:11 AM,32.0,32.0,100,29.75,0.8,Calm,Calm,-,0.01,Snow,Light Snow,0,2009-01-18 14:11:00
9:20 AM,32.0,32.0,100,29.75,1.2,Calm,Calm,-,0.01,Snow,Light Snow,0,2009-01-18 14:20:00
9:42 AM,33.8,30.2,87,29.74,0.5,South,4.6,-,0.01,Fog-Snow,Light Snow,190,2009-01-18 14:42:00
9:53 AM,33.1,32.0,96,29.78,0.8,Variable,3.5,-,0.02,Snow,Light Snow,0,2009-01-18 14:53:00
10:00 AM,33.8,32.0,93,29.74,1.2,South,4.6,-,0.00,Snow,Light Snow,190,2009-01-18 15:00:00
10:18 AM,33.8,32.0,93,29.73,2.5,South,3.5,-,0.00,,Overcast,190,2009-01-18 15:18:00
10:32 AM,33.8,32.0,93,29.73,1.8,SSW,4.6,-,0.00,Snow,Light Snow,200,2009-01-18 15:32:00
10:39 AM,33.8,32.0,93,29.73,1.5,SSW,4.6,-,0.00,Snow,Light Snow,210,2009-01-18 15:39:00
10:45 AM,33.8,32.0,93,29.73,2.0,SSW,5.8,-,0.00,Snow,Light Snow,210,2009-01-18 15:45:00
10:51 AM,33.8,32.0,93,29.73,3.0,Variable,3.5,-,0.00,Snow,Light Snow,0,2009-01-18 15:51:00
10:52 AM,33.1,32.0,96,29.76,3.0,SSW,4.6,-,0.00,Snow,Light Snow,210,2009-01-18 15:52:00
11:16 AM,33.8,30.2,87,29.72,2.5,SW,8.1,-,0.00,Snow,Light Snow,220,2009-01-18 16:16:00
11:50 AM,33.8,30.2,87,29.70,4.0,SW,6.9,-,0.00,,Overcast,230,2009-01-18 16:50:00
11:53 AM,33.1,30.9,92,29.74,3.0,SW,9.2,-,0.00,,Overcast,230,2009-01-18 16:53:00
12:09 PM,33.8,30.2,87,29.69,4.0,SW,8.1,-,0.01,Snow,Light Snow,230,2009-01-18 17:09:00
12:45 PM,33.8,30.2,87,29.68,8.0,Variable,5.8,-,0.01,Snow,Light Snow,0,2009-01-18 17:45:00
12:53 PM,33.1,28.9,85,29.71,5.0,SW,5.8,-,0.01,Snow,Light Snow,230,2009-01-18 17:53:00
1:21 PM,32.0,28.4,87,29.67,1.8,WSW,12.7,-,0.00,Snow,Light Snow,240,2009-01-18 18:21:00
1:53 PM,32.0,28.0,85,29.71,8.0,WSW,12.7,-,0.00,Snow,Light Snow,240,2009-01-18 18:53:00
2:33 PM,32.0,28.4,87,29.67,4.0,South,5.8,-,0.00,Snow,Light Snow,190,2009-01-18 19:33:00
2:44 PM,32.0,28.4,87,29.67,5.0,SW,13.8,-,0.00,Snow,Light Snow,220,2009-01-18 19:44:00
2:53 PM,32.0,28.9,88,29.70,9.0,SW,13.8,-,0.00,Snow,Light Snow,220,2009-01-18 19:53:00
3:17 PM,33.8,28.4,81,29.66,2.0,SSW,9.2,-,0.00,Snow,Light Snow,210,2009-01-18 20:17:00
3:21 PM,32.0,28.4,87,29.67,0.8,SW,11.5,19.6,0.01,Snow,Light Snow,230,2009-01-18 20:21:00
3:31 PM,32.0,28.4,87,29.67,1.0,WSW,12.7,24.2,0.01,Snow,Light Snow,250,2009-01-18 20:31:00
3:34 PM,32.0,28.4,87,29.67,3.0,WSW,12.7,24.2,0.01,Snow,Light Snow,250,2009-01-18 20:34:00
3:42 PM,30.2,26.6,86,29.68,8.0,WSW,12.7,24.2,0.01,Snow,Light Snow,250,2009-01-18 20:42:00
3:53 PM,30.9,26.1,82,29.72,5.0,WSW,12.7,24.2,0.01,Snow,Light Snow,250,2009-01-18 20:53:00
4:45 PM,30.2,26.6,86,29.69,5.0,WSW,3.5,-,0.00,Snow,Light Snow,250,2009-01-18 21:45:00
4:53 PM,30.9,26.1,82,29.72,2.0,Calm,Calm,-,0.00,Snow,Light Snow,0,2009-01-18 21:53:00
5:00 PM,30.2,26.6,86,29.69,4.0,Variable,4.6,-,0.00,Snow,Light Snow,0,2009-01-18 22:00:00
5:53 PM,30.0,25.0,82,29.73,9.0,Variable,3.5,-,0.00,Snow,Light Snow,0,2009-01-18 22:53:00
6:53 PM,30.0,25.0,82,29.75,6.0,Calm,Calm,-,0.00,Snow,Light Snow,0,2009-01-18 23:53:00
7:01 PM,28.4,24.8,86,29.72,3.0,Calm,Calm,-,0.00,Snow,Light Snow,0,2009-01-19 00:01:00
7:10 PM,28.4,24.8,86,29.72,2.5,West,4.6,-,0.00,Snow,Light Snow,270,2009-01-19 00:10:00
7:53 PM,27.0,25.0,92,29.75,2.0,NW,4.6,-,0.00,Snow,Light Snow,320,2009-01-19 00:53:00
7:57 PM,26.6,24.8,93,29.72,2.0,NNW,4.6,-,0.00,Snow,Light Snow,330,2009-01-19 00:57:00
8:08 PM,26.6,24.8,93,29.72,1.5,North,3.5,-,0.01,Snow,Light Snow,350,2009-01-19 01:08:00
8:21 PM,26.6,24.8,93,29.72,2.0,NW,4.6,-,0.01,Snow,Light Snow,320,2009-01-19 01:21:00
8:23 PM,26.6,24.8,93,29.72,1.8,Variable,3.5,-,0.01,Snow,Light Snow,0,2009-01-19 01:23:00
8:39 PM,26.6,23.0,86,29.73,2.0,NNW,4.6,-,0.01,Snow,Light Snow,340,2009-01-19 01:39:00
8:42 PM,24.8,23.0,93,29.73,1.8,NNW,4.6,-,0.01,Snow,Light Snow,330,2009-01-19 01:42:00
8:53 PM,25.0,23.0,92,29.76,2.0,Calm,Calm,-,0.01,Snow,Light Snow,0,2009-01-19 01:53:00
9:03 PM,24.8,21.2,86,29.73,3.0,Calm,Calm,-,0.00,Snow,Light Snow,0,2009-01-19 02:03:00
9:30 PM,24.8,19.4,80,29.73,9.0,Calm,Calm,-,0.00,Snow,Light Snow,0,2009-01-19 02:30:00
9:53 PM,25.0,19.0,78,29.77,9.0,Variable,3.5,-,0.00,Snow,Light Snow,0,2009-01-19 02:53:00
10:53 PM,24.1,19.0,81,29.77,8.0,Variable,3.5,-,0.00,,Overcast,0,2009-01-19 03:53:00
11:33 PM,24.8,19.4,80,29.73,7.0,Calm,Calm,-,N/A,,Overcast,0,2009-01-19 04:33:00
11:53 PM,24.1,18.0,77,29.76,6.0,West,4.6,-,N/A,,Haze,280,2009-01-19 04:53:00